User: anonymous   Login
Location: Unspecified
(0.0000°N, 0.0000°E)
Time: 20:53:41
(UTC+00:00)
Language:

OFEQ 9 - Orbit

View from above orbital plane
View from above orbital plane
View from above satellite
View from above satellite

Ground track
Ground track

The orbit data is extracted from the following two-line orbital elements,

1 36608U 10031A   18138.10533397 0.00001000  00000-0  40451-4 0    02
2 36608 141.7775  26.3948 0002000 124.1228 235.8764 15.23824571    04
Epoch (UTC): 18 May 2018 02:31:40
Eccentricity: 0.0002000
inclination: 141.7775°
perigee height: 493 km
apogee height: 495 km
right ascension of ascending node: 26.3948°
argument of perigee: 124.1228°
revolutions per day: 15.23824571
mean anomaly at epoch: 235.8764°
orbit number at epoch: 0

The dashed part of the orbit path shows where the satellite is in the earth's shadow,  

DLR